www.pogodaiklimat.ru

Погода и климат >> Архив погоды >> Канада >> Toronto


АРХИВ ПОГОДЫ в Toronto

Время (UTC), дата Ветер
(напр.,м/с)
 
Видим.   Явления Облачность Т
(С)
Тd
(С)
f
(%)
Тe
(С)
Тes
(С)
Комфортность P
(гПа)
Po
(гПа)
Тmin
(С)
Tmax
(С)
R
(мм)
R24
(мм)
S
(см)
12 12.12 С 3 12 км 10/10 300 м
[Sc]
-0.8 -3.2 84 -6 -6 по сезону 1020.1 998.5 -1.1 -0.2 <0.5
15 12.12 В 3 14 км 10/10 300 м
[]
-0.2 -3.3 80 -4 -4 по сезону 1020.5 998.9
18 12.12 В 4 14 км 10/10 300 м
[Sc]
0.0 -3.0 80 -5 -5 по сезону 1019.3 997.8 -1.6 +0.4
21 12.12 В 5 24 км 10/10 600 м
[]
+1.0 -3.5 72 -5 -5 по сезону 1018.7 997.2
00 13.12 В 8 24 км 10/6 300 м
[Cu Sc Ac As]
+1.0 -3.4 72 -6 -6 по сезону 1018.4 996.9 -0.9 +1.2
03 13.12 В 7 24 км 9/9 300 м
[]
+0.9 -2.5 78 -6 -6 по сезону 1018.3 996.8
06 13.12 2000 м слабый снег н/о +0.1 -1.8 87 -5 -5 по сезону 1018.6 997.1 -0.9 +1.2 1 51
09 13.12 В 1 8000 м 10/10 300 м
[]
0.0 -1.3 91 -2 -2 тепло 1019.4 997.9
12 13.12 В 4 4800 м дымка {снег} 10/10 100 м
[St]
+0.2 -1.0 92 -5 -5 по сезону 1020.6 999.1 -0.2 +1.2 0.6 2
15 13.12 СВ 4 4800 м 10/10 100 м
[]
-0.1 -1.2 92 -5 -5 по сезону 1023.5 1001.9
18 13.12 СВ 4 8000 м дымка 10/10 100 м
[St]
+0.6 -0.7 91 -5 -5 по сезону 1023.5 1001.9 -1.1 +0.6
21 13.12 В 3 8000 м 10/10 100 м
[]
+1.8 +0.4 90 -3 -3 по сезону 1025.1 1003.5
00 14.12 В 3 9000 м дымка 10/10 200 м
[Frnb]
+2.1 +0.6 90 -2 -2 по сезону 1025.7 1004.1 -1.1 +2.1
03 14.12 ЮВ 2 9000 м 9/9 100 м
[]
+2.3 +1.0 91 -0 -0 тепло 1025.6 1004.0
06 14.12 ЮВ 2 12 км 3/3 600 м
[Sc]
+1.3 +0.2 92 -2 -2 по сезону 1024.7 1003.1 -1.1 +2.5
09 14.12 З 2 12 км 9/9 1000 м
[]
-0.9 -2.0 92 -5 -5 по сезону 1024.4 1002.8
12 14.12 С 1 9000 м слабый дождь 10/10 600 м
[Sc]
+1.6 +0.6 93 +1 +1 тепло 1024.2 1002.7 -1.0 +2.5 0.0
15 14.12 ЮВ 2 2400 м 8/8 50 м
[]
+3.2 +2.2 93 +1 +1 тепло 1024.5 1003.0
18 14.12 ЮВ 3 3200 м в посл. час дождь 10/10 50 м
[St]
+4.0 +3.0 93 0 0 по сезону 1021.5 1000.1 -1.0 +4.0 3
21 14.12 ЮВ 3 6000 м 10/10 1500 м
[]
+4.7 +3.5 92 +1 +1 тепло 1021.5 1000.0
00 15.12 ЮЗ 2 9000 м дымка 10/10 600 м
[Sc]
+5.0 +3.4 89 +2 +2 тепло 1021.7 1000.3 -1.0 +5.4
03 15.12 З 4 8000 м 9/9 100 м
[]
+3.8 +2.3 90 -1 -1 тепло 1021.6 1000.2
06 15.12 З 2 17 км ясно +1.1 -0.1 92 -2 -2 тепло 1021.0 999.6 -1.0 +5.4
09 15.12 С 3 24 км 6/0
[]
+0.5 -0.8 91 -4 -4 по сезону 1023.1 1001.6
12 15.12 С 3 24 км 10/0
[Ci sp]
+0.2 -1.3 90 -5 -5 по сезону 1024.6 1003.1 -0.5 +5.4
15 15.12 СВ 1 16 км 10/10 300 м
[]
+2.5 +0.8 89 +1 +1 тепло 1024.9 1003.4
18 15.12 В 3 24 км 10/10 300 м
[Sc]
+3.8 +1.1 83 0 0 тепло 1023.3 1001.8 -0.6 +3.9
21 15.12 В 4 19 км 10/10 300 м
[]
+3.3 -1.1 73 -1 -1 по сезону 1023.9 1002.4
00 16.12 СВ 3 24 км 10/8 300 м
[Sc Cs]
+2.8 -0.7 78 -1 -1 тепло 1024.9 1003.3 -0.6 +4.0
03 16.12 СВ 2 24 км 9/0
[]
+1.0 -1.7 82 -2 -2 по сезону 1024.1 1002.6
06 16.12 В 3 24 км 8/0
[Ci fib]
+0.7 -2.8 77 -3 -3 по сезону 1021.8 1000.3 -0.6 +4.0
09 16.12 СВ 3 16 км 10/10 300 м
[]
+0.4 -1.8 85 -4 -4 по сезону 1020.4 998.9
12 16.12 СВ 2 24 км 10/5 300 м
[Sc As op]
-0.2 -2.3 86 -4 -4 по сезону 1019.8 998.3 -0.6 +4.0
15 16.12 0 н/о -1.9 1018.1 996.7
18 16.12 С 2 19 км 9/4 300 м
[Sc Ac As Ci fib]
+3.0 -0.2 79 +1 +2 тепло 1016.3 994.9 -0.6 +3.0
21 16.12 ЮВ 3 24 км 6/6 600 м
[]
+3.1 -0.8 76 -0 -0 тепло 1015.4 994.0
00 17.12 ЮЗ 2 24 км 10/10 200 м
[St]
+1.9 -0.6 83 -1 -1 тепло 1014.8 993.4 -0.6 +3.9
03 17.12 Ю 3 6000 м 10/10 100 м
[]
+1.7 -0.2 87 -3 -3 по сезону 1012.9 991.6
06 17.12 ЮЗ 4 9000 м дымка 9/9 200 м
[St]
+0.8 -0.8 89 -4 -4 по сезону 1010.4 989.1 -0.6 +3.9 6
09 17.12 СЗ 5 17 км 10/10 300 м
[]
+1.7 -0.4 86 -4 -4 по сезону 1009.5 988.3
12 17.12 З 6 24 км 5/5 1500 м
[Sc]
+0.8 -1.6 84 -5 -5 по сезону 1009.6 988.3 0.0 +3.9
15 17.12 СЗ 10 24 км 10/10 1000 м
[]
+2.6 -2.3 70 -4 -4 по сезону 1011.2 989.9
18 17.12 СЗ 9 24 км 10/10 600 м
[Cu Sc]
+2.4 -4.6 60 -4 -4 по сезону 1011.6 990.3 0.0 +2.7
21 17.12 СЗ 7 24 км 9/9 1000 м
[]
+2.2 -6.1 54 -4 -4 по сезону 1013.5 992.2
00 18.12 СЗ 10 24 км 10/10 600 м
[Sc]
+0.8 -7.2 55 -7 -7 по сезону 1016.3 994.9 0.0 +2.7
03 18.12 СЗ 8 24 км 4/4 1000 м
[]
-0.4 -7.3 60 -8 -8 по сезону 1017.6 996.2
06 18.12 С 5 24 км 10/10 600 м
[Cu Sc]
-1.0 -8.0 59 -7 -7 по сезону 1018.7 997.2 -1.0 +2.7 201
09 18.12 С 5 24 км 8/8 1000 м
[]
-3.8 -8.8 68 -10 -10 по сезону 1021.0 999.4
12 18.12 С 5 24 км 8/8 300 м
[Sc]
-6.0 -10.3 72 -13 -13 прохладно 1023.7 1002.0 -6.0 +2.7
15 18.12 С 3 24 км 5/5 1000 м
[]
-4.8 -10.5 64 -10 -9 прохладно 1025.2 1003.5
18 18.12 СЗ 4 24 км {ливн. осадки} 4/3 600 м
[Cu Sc Ac trans Ci fib]
-1.9 -9.8 55 -7 -5 по сезону 1023.8 1002.1 -6.2 -1.1 0.0
21 18.12 Ю 3 24 км 5/0
[]
-1.3 -8.7 57 -6 -6 по сезону 1022.8 1001.1
00 19.12 ЮВ 1 24 км 5/0
[Ci fib]
-2.2 -7.2 69 -4 -4 по сезону 1022.3 1000.5 -6.2 +0.2
03 19.12 Ю 1 24 км 1/0
[]
-2.4 -7.2 70 -4 -4 по сезону 1021.3 999.6
06 19.12 ЮЗ 3 24 км 10/0
[Ci fib]
-2.6 -6.7 73 -7 -7 по сезону 1018.9 997.3 -6.2 +0.2 9

 

Местоположение метеостанции Toronto (Канада): широта 43.67 долгота -79.63 высота над уровнем моря 173 м.

В архиве по умолчанию представлена погода в Toronto за последнюю неделю. Архивные данные за месяц целиком и за предыдущие месяцы, начиная с января 2011 года, Вы можете получить, выбрав интересующий диапазон дат из раскрывающегося списка и нажав кнопку "Ввод!".


*Определитесь, кто Вы:
робот инопланетянин человек

Внимание! Время в таблицах - всемирное. Для получения местного времени необходимо прибавить поправку, которая в Toronto равна -5 ч.

Смотрите также архив погоды в соседних городах и на ближайших метеорологических станциях:

Погода в Toronto Aes Hq (Канада) (18 км)
Погода в Toronto City (Канада) (19 км)
Погода в Toronto Island Arpt (Канада) (19 км)
Погода в Toronto Buttonville (Канада) (31 км)
Погода в Buttonville (Канада) (31 км)
Погода в Burlington Piers (Канада) (43 км)
Погода в Hamilton Rbg Cs (Канада) (49 км)
Погода в Guelph Turfgrass (Канада) (49 км)
Погода в Vineland Station Rc (Канада) (58 км)
Погода в Port Weller (Канада) (58 км)

Пояснения к столбцам:

Ветер - указаны скорость ветра в м/с - средняя за 10 мин, порывы в срок и между сроками (в фигурных скобках) и направление, откуда дует ветер: С - северный, СВ - северо-восточный, В - восточный, ЮВ - юго-восточный, Ю - южный, ЮЗ - юго-западный, З - западный, СЗ - северо-западный.
Видимость - горизонтальная дальность видимости в метрах или километрах. При видимости от 1 до 10 км при отсутствии осадков обычно наблюдается дымка, при ухудшении видимости до 1 км и менее - туман. В сухую погоду видимость может ухудшаться дымом, пылью или мглою.
Явления - указаны атмосферные явления, наблюдавшиеся в срок или в последний час перед сроком; фигурными скобками обозначены явления, наблюдавшиеся между сроками (за 1-3 часа до срока); квадратными скобками обозначены град или гололедные отложения с указанием их диаметра в мм.
Облачность - указаны через наклонную черту общая и нижняя облачность в баллах и высота нижней границы облаков в метрах; квадратными скобками обозначены формы облаков: Ci - перистые, Cs - перисто-слоистые, Cc - перисто-кучевые, Ac - высококучевые, As - высокослоистые, Sc - слоисто-кучевые, Ns - слоисто-дождевые, Cu - кучевые, Cb - кучево-дождевые. Подробнее классификацию облаков см. в Атласе облаков (PDF).
T - Температура воздуха - температура, измеренная на высоте 2 м над землей.
Td - Температура точки росы - температура, при понижении до которой содержащийся в воздухе водяной пар достигнет насыщения.
f - Относительная влажность воздуха - влажноcть воздуха, измеренная на высоте 2 м над землей.
Te - Эффективная температура - температура, которую ощущает одетый по сезону человек в тени. Характеристика душности погоды. При расчете учитывается влияние влажности воздуха и скорости ветра на теплоощущения человека.
Tes - Эффективная температура на солнце - температура, которую ощущает человек, с поправкой на солнечный нагрев. Характеристика знойности погоды. Зависит от высоты солнца над горизонтом, облачности и скорости ветра. Ночью, в пасмурную погоду, а также при ветре 12 м/с и более поправка равна нулю.
P - Атмосферное давление - приведенное к уровню моря атмосферное давление.
Po - Атмосферное давление - измеренное на уровне метеостанции атмосферное давление.
Tmin - Минимальная температура - минимум температуры воздуха на высоте 2 м над землей.
Tmax - Максимальная температура - максимум температуры воздуха на высоте 2 м над землей.
R - Количество осадков - Количество выпавших осадков за период времени, мм. При наведении курсора мыши на число - период времени, за который выпало указанное количество осадков.
R24 - Количество осадков - Количество выпавших осадков за 24 часа, мм.
S - Снежный покров - Высота снежного покрова, см. При наведении курсора мыши на число - состояние снежного покрова и степень покрытия местности в баллах.